F6255 Weather Reports


Display with metric or nautical units.
time (UTC)temp
F
wind
direction
speed
MPH
gust
MPH
rain 1hr
in
rain 24hr
in
rain mn
in
humidity
%
barometer
mb
20260507150054 53 117 6.0 12.0 0.00 0.00 0.00 52 1017.7
20260507144550 53 113 1.0 12.0 0.00 0.00 0.00 54 1017.7
20260507143055 53 119 4.0 11.0 0.00 0.00 0.00 53 1017.6
20260507141549 52 113 6.0 11.0 0.00 0.00 0.00 54 1017.7
20260507140051 52 129 1.0 10.0 0.00 0.00 0.00 60 1017.8
20260507134555 51 123 2.0 10.0 0.00 0.00 0.00 62 1017.8
20260507133055 50 125 2.0 9.0 0.00 0.00 0.00 63 1017.7
20260507131600 50 139 2.0 9.0 0.00 0.00 0.00 66 1017.7
20260507130105 49 136 4.0 9.0 0.00 0.00 0.00 68 1017.6
20260507124553 47 142 1.0 10.0 0.00 0.00 0.00 73 1017.8
20260507123123 46 0 1.0 5.0 0.00 0.00 0.00 75 1018.0
20260507121605 45 111 1.0 6.0 0.00 0.00 0.00 79 1018.1
20260507120057 45 146 0.0 3.0 0.00 0.00 0.00 81 1018.2
20260507114603 44 148 0.0 4.0 0.00 0.00 0.00 83 1018.1
20260507113052 43 150 0.0 3.0 0.00 0.00 0.00 86 1018.0
20260507111552 43 126 0.0 3.0 0.00 0.00 0.00 89 1017.6
20260507104554 43 126 0.0 2.0 0.00 0.00 0.00 91 1017.4
20260507103054 43 0 0.0 2.0 0.00 0.00 0.00 91 1017.2
20260507101600 43 126 1.0 3.0 0.00 0.00 0.00 92 1017.1
20260507100051 43 0 1.0 3.0 0.00 0.00 0.00 93 1017.3
20260507094556 43 126 0.0 2.0 0.00 0.00 0.00 93 1017.3
20260507093055 44 126 0.0 2.0 0.00 0.00 0.00 93 1017.2
20260507091552 44 126 0.0 2.0 0.00 0.00 0.00 93 1017.1
20260507090056 44 126 0.0 2.0 0.00 0.00 0.00 93 1016.9
20260507084555 44 0 0.0 2.0 0.00 0.02 0.00 92 1016.9
20260507083050 45 126 0.0 1.0 0.00 0.02 0.00 92 1016.7
20260507081554 45 0 0.0 3.0 0.00 0.02 0.00 92 1016.7
20260507074605 46 126 0.0 2.0 0.00 0.15 0.00 93 1016.7
20260507073049 46 126 1.0 3.0 0.00 0.15 0.00 94 1016.7
20260507071553 46 126 0.0 2.0 0.00 0.15 0.00 94 1016.8
20260507070055 46 0 0.0 2.0 0.00 0.15 0.00 93 1016.7
20260507064550 45 126 0.0 1.0 0.00 0.21 0.00 93 1016.8
20260507063054 45 0 0.0 1.0 0.00 0.21 0.00 92 1017.0
20260507061552 45 0 0.0 2.0 0.00 0.21 0.00 92 1017.0
20260507060048 46 0 0.0 1.0 0.00 0.21 0.00 92 1016.8
20260507054638 46 0 0.0 1.0 0.00 0.33 0.00 92 1016.9
20260507053053 46 126 0.0 1.0 0.00 0.33 0.00 92 1017.1
20260507051553 46 0 0.0 1.0 0.00 0.33 0.00 92 1017.2
20260507050056 46 126 0.0 2.0 0.00 0.33 0.00 91 1017.0
20260507044600 46 126 1.0 2.0 0.00 0.52 0.00 90 1017.3
20260507043055 47 0 0.0 1.0 0.00 0.52 0.00 90 1017.2
20260507041603 48 126 0.0 2.0 0.00 0.52 0.00 89 1017.5
20260507040055 48 0 0.0 1.0 0.00 0.52 0.00 89 1017.4
20260507034558 49 0 0.0 2.0 0.00 0.52 0.52 88 1017.4
20260507033100 49 0 0.0 2.0 0.00 0.52 0.52 88 1017.1
20260507031605 50 126 0.0 2.0 0.00 0.52 0.52 87 1017.1
20260507030056 50 0 0.0 2.0 0.00 0.52 0.52 86 1017.2
20260507024552 51 126 0.0 2.0 0.00 0.52 0.52 85 1017.2
20260507023101 52 126 0.0 2.0 0.00 0.52 0.52 84 1017.1
20260507021553 52 0 0.0 2.0 0.00 0.52 0.52 83 1016.9
20260507020056 53 0 0.0 2.0 0.00 0.52 0.52 83 1016.7
20260507014600 53 126 0.0 1.0 0.00 0.54 0.52 81 1016.6
20260507013048 54 126 0.0 2.0 0.00 0.54 0.52 79 1016.6
20260507011554 55 0 0.0 2.0 0.00 0.54 0.52 76 1016.3
20260507010054 55 0 0.0 1.0 0.00 0.54 0.52 73 1016.2
20260507004553 56 0 0.0 2.0 0.00 0.54 0.52 71 1016.1
20260507003052 57 0 0.0 1.0 0.00 0.54 0.52 70 1016.0
20260507001548 57 0 0.0 3.0 0.00 0.54 0.52 69 1015.8
20260507000050 58 128 0.0 3.0 0.00 0.54 0.52 68 1015.7
20260506234554 58 128 1.0 3.0 0.00 0.60 0.52 66 1015.6
20260506233107 58 152 1.0 7.0 0.00 0.60 0.52 64 1015.5
20260506231550 59 150 2.0 5.0 0.00 0.60 0.52 62 1015.2
20260506230056 59 128 2.0 6.0 0.00 0.60 0.52 62 1015.0
20260506224554 59 138 3.0 7.0 0.00 0.60 0.52 60 1014.9
20260506223052 60 128 3.0 8.0 0.00 0.60 0.52 61 1015.0
20260506221552 60 127 2.0 7.0 0.00 0.60 0.52 60 1014.7
20260506220056 60 142 2.0 5.0 0.00 0.60 0.52 60 1015.1
20260506214553 61 124 4.0 7.0 0.00 0.65 0.52 56 1015.4
20260506213111 61 131 1.0 6.0 0.00 0.65 0.52 57 1015.3
20260506211548 61 134 3.0 8.0 0.00 0.65 0.52 58 1015.0
20260506210056 61 129 2.0 8.0 0.00 0.65 0.52 59 1014.7
20260506204556 61 141 1.0 7.0 0.00 0.71 0.52 60 1014.6
20260506203052 61 144 2.0 5.0 0.00 0.71 0.52 60 1014.8
20260506201552 61 190 2.0 9.0 0.00 0.71 0.52 57 1015.2
20260506200051 61 29 2.0 5.0 0.00 0.71 0.52 57 1015.1
20260506194623 61 124 1.0 9.0 0.00 0.71 0.52 57 1015.1
20260506193104 62 138 1.0 8.0 0.00 0.71 0.52 55 1015.3
20260506191556 60 166 4.0 11.0 0.00 0.71 0.52 60 1015.3
20260506190057 59 132 2.0 10.0 0.00 0.71 0.52 58 1015.1
20260506184557 60 108 3.0 10.0 0.00 0.71 0.52 59 1015.0
20260506183055 59 118 5.0 14.0 0.00 0.71 0.52 59 1014.6
20260506181555 58 157 6.0 13.0 0.00 0.71 0.52 59 1014.6
20260506180104 58 127 4.0 10.0 0.00 0.71 0.52 61 1014.6
20260506174555 59 143 2.0 10.0 0.00 0.71 0.52 61 1014.7
20260506173056 58 130 2.0 11.0 0.00 0.71 0.52 64 1015.0
20260506171558 58 157 4.0 10.0 0.00 0.71 0.52 67 1015.2
20260506170104 57 132 5.0 13.0 0.00 0.71 0.52 68 1015.4
20260506164551 56 137 6.0 14.0 0.00 0.71 0.52 70 1015.5
20260506163111 55 145 5.0 14.0 0.00 0.71 0.52 71 1015.5
20260506161606 55 153 4.0 13.0 0.00 0.71 0.52 72 1015.3
20260506160050 55 134 3.0 9.0 0.00 0.71 0.52 72 1015.2
20260506154608 54 129 3.0 11.0 0.00 0.71 0.52 74 1015.2
20260506153059 54 166 2.0 6.0 0.00 0.71 0.52 78 1014.9
20260506151558 53 130 4.0 10.0 0.00 0.71 0.52 74 1015.1